Location: Elstree
(51.6403°N, 0.2969°W)
Time: 19:50:54
(UTC+00:00)

Terra - Pass Details

Date: 26 June 2021
Orbit: 701 x 703 km, 98.2° (Epoch: 04 August)

Event Time Altitude Azimuth Distance (km) Brightness Sun altitude
Exits shadow 23:21:41 - 226° (SW) 2,626 4.5 -14.5°
Reaches altitude 10° 23:23:33 10° 243° (WSW) 2,173 4.2 -14.5°
Maximum altitude 23:26:00 14° 274° (W) 1,921 4.2 -14.6°
Drops below altitude 10° 23:28:27 10° 305° (NW) 2,181 5.0 -14.6°
Sets 23:31:52 0° 331° (NNW) 3,106 6.5 -14.7°
